SAPPHIRE

Last updated on Sun Jun 21 2026 00:03:46 GMT+0000 (Coordinated Universal Time)

1 39088U 13009C 26171.43846095 .00000069 00000+0 39200-4 0 9999 2 39088 98.4263 350.8170 0010178 235.9238 124.0983 14.35241298697047
UTC large
Height (km)
Speed (km/s)
/
Latitude / Longitude
Inclination (degrees)
Orbital Period (minutes)
Azimuth
Elevation
Range (km)
Doppler Factor

Next 0 passes for location: London (51.5072 / 0.1276)

No passes found over London.
SAPPHIRE